Time,TemperatureF,DewpointF,PressureIn,WindDirection,WindDirectionDegrees,WindSpeedMPH,WindSpeedGustMPH,Humidity,HourlyPrecipIn,Conditions,Clouds,dailyrainin,SoftwareType,DateUTC
2013-03-23 00:01:00,32.8,32.0,30.02,ESE,112,3.0,9.0,98,0.00,,,0.04,weatherlink.com 1.10,2013-03-23 05:01:00,
2013-03-23 00:16:00,32.8,32.0,30.02,ESE,112,5.0,8.0,98,0.00,,,0.04,weatherlink.com 1.10,2013-03-23 05:16:00,
2013-03-23 00:31:00,32.9,32.0,30.03,ESE,113,2.0,4.0,98,0.00,,,0.04,weatherlink.com 1.10,2013-03-23 05:31:00,
2013-03-23 01:46:00,32.7,32.0,30.00,East,86,2.0,7.0,98,0.00,,,0.04,weatherlink.com 1.10,2013-03-23 06:46:00,
2013-03-23 02:01:00,32.7,32.0,30.00,ENE,71,3.0,7.0,98,0.00,,,0.04,weatherlink.com 1.10,2013-03-23 07:01:00,
2013-03-23 03:01:00,32.8,32.0,29.99,NE,56,4.0,6.0,98,0.00,,,0.04,weatherlink.com 1.10,2013-03-23 08:01:00,
2013-03-23 03:16:00,32.8,32.0,29.98,ENE,76,4.0,8.0,98,0.00,,,0.00,weatherlink.com 1.10,2013-03-23 08:16:00,
2013-03-23 03:31:00,32.8,32.0,29.98,ENE,67,3.0,7.0,98,0.00,,,0.00,weatherlink.com 1.10,2013-03-23 08:31:00,
2013-03-23 03:46:00,32.8,32.0,29.98,NE,53,4.0,8.0,98,0.00,,,0.00,weatherlink.com 1.10,2013-03-23 08:46:00,
2013-03-23 04:01:00,32.6,32.0,29.97,NE,41,4.0,9.0,98,0.00,,,0.00,weatherlink.com 1.10,2013-03-23 09:01:00,
2013-03-23 04:16:00,32.5,32.0,29.97,NE,49,4.0,9.0,98,0.00,,,0.00,weatherlink.com 1.10,2013-03-23 09:16:00,
2013-03-23 04:31:00,32.5,32.0,29.97,ENE,57,5.0,7.0,98,0.00,,,0.00,weatherlink.com 1.10,2013-03-23 09:31:00,
2013-03-23 04:46:00,32.5,32.0,29.98,ENE,76,4.0,7.0,98,0.00,,,0.00,weatherlink.com 1.10,2013-03-23 09:46:00,
2013-03-23 05:01:00,32.5,32.0,29.98,East,85,7.0,8.0,98,0.00,,,0.00,weatherlink.com 1.10,2013-03-23 10:01:00,
2013-03-23 05:31:00,32.6,32.0,29.98,ENE,78,7.0,9.0,98,0.00,,,0.00,weatherlink.com 1.10,2013-03-23 10:31:00,
2013-03-23 05:46:00,32.6,32.0,29.99,East,80,5.0,8.0,98,0.00,,,0.00,weatherlink.com 1.10,2013-03-23 10:46:00,
2013-03-23 06:01:00,32.6,32.0,29.99,ENE,78,7.0,8.0,98,0.00,,,0.00,weatherlink.com 1.10,2013-03-23 11:01:00,
2013-03-23 06:16:00,32.6,32.0,29.99,ENE,76,5.0,10.0,98,0.00,,,0.00,weatherlink.com 1.10,2013-03-23 11:16:00,
2013-03-23 06:46:00,32.6,32.0,30.00,ENE,76,5.0,9.0,98,0.00,,,0.00,weatherlink.com 1.10,2013-03-23 11:46:00,
2013-03-23 07:01:00,32.7,32.0,30.00,East,84,3.0,8.0,98,0.00,,,0.00,weatherlink.com 1.10,2013-03-23 12:01:00,
2013-03-23 07:16:00,32.7,32.0,30.00,East,93,5.0,8.0,98,0.00,,,0.00,weatherlink.com 1.10,2013-03-23 12:16:00,
2013-03-23 07:31:00,32.7,32.0,30.00,East,82,8.0,9.0,98,0.00,,,0.00,weatherlink.com 1.10,2013-03-23 12:31:00,
2013-03-23 07:46:00,32.8,32.0,30.00,East,80,7.0,8.0,98,0.00,,,0.00,weatherlink.com 1.10,2013-03-23 12:46:00,
2013-03-23 08:01:00,32.9,32.0,30.00,ENE,74,7.0,9.0,97,0.00,,,0.00,weatherlink.com 1.10,2013-03-23 13:01:00,
2013-03-23 08:16:00,33.0,32.0,29.99,ENE,73,7.0,9.0,97,0.00,,,0.00,weatherlink.com 1.10,2013-03-23 13:16:00,
2013-03-23 08:31:00,33.2,33.0,29.99,ENE,76,8.0,11.0,97,0.00,,,0.00,weatherlink.com 1.10,2013-03-23 13:31:00,
2013-03-23 08:46:00,33.4,33.0,30.00,East,85,6.0,11.0,97,0.00,,,0.00,weatherlink.com 1.10,2013-03-23 13:46:00,
2013-03-23 09:01:00,33.5,33.0,30.00,East,80,8.0,10.0,96,0.00,,,0.00,weatherlink.com 1.10,2013-03-23 14:01:00,
2013-03-23 09:16:00,33.7,33.0,30.00,ENE,76,7.0,10.0,96,0.00,,,0.00,weatherlink.com 1.10,2013-03-23 14:16:00,
2013-03-23 09:31:00,33.9,33.0,30.00,East,88,7.0,11.0,96,0.00,,,0.00,weatherlink.com 1.10,2013-03-23 14:31:00,
2013-03-23 10:16:00,35.5,34.0,30.00,ENE,77,7.0,11.0,93,0.00,,,0.00,weatherlink.com 1.10,2013-03-23 15:16:00,
2013-03-23 10:32:00,36.2,34.0,30.00,ENE,75,8.0,9.0,92,0.00,,,0.00,weatherlink.com 1.10,2013-03-23 15:32:00,
2013-03-23 10:47:00,36.8,34.0,29.99,ENE,63,10.0,11.0,90,0.00,,,0.00,weatherlink.com 1.10,2013-03-23 15:47:00,
2013-03-23 11:02:00,37.1,34.0,29.99,ENE,76,4.0,10.0,89,0.00,,,0.00,weatherlink.com 1.10,2013-03-23 16:02:00,
2013-03-23 11:17:00,37.6,34.0,29.99,East,82,6.0,8.0,88,0.00,,,0.00,weatherlink.com 1.10,2013-03-23 16:17:00,
2013-03-23 11:32:00,37.2,34.0,29.99,East,88,10.0,12.0,87,0.00,,,0.00,weatherlink.com 1.10,2013-03-23 16:32:00,
2013-03-23 11:47:00,37.1,34.0,29.98,ENE,64,10.0,14.0,88,0.00,,,0.00,weatherlink.com 1.10,2013-03-23 16:47:00,
2013-03-23 12:02:00,37.7,35.0,29.97,East,86,7.0,11.0,89,0.00,,,0.00,weatherlink.com 1.10,2013-03-23 17:02:00,
2013-03-23 12:17:00,37.6,34.0,29.97,ENE,69,11.0,12.0,87,0.00,,,0.00,weatherlink.com 1.10,2013-03-23 17:17:00,
2013-03-23 12:32:00,37.7,35.0,29.97,ENE,69,8.0,13.0,88,0.00,,,0.00,weatherlink.com 1.10,2013-03-23 17:32:00,
2013-03-23 12:47:00,37.9,34.0,29.97,ENE,58,8.0,10.0,87,0.00,,,0.00,weatherlink.com 1.10,2013-03-23 17:47:00,
2013-03-23 13:02:00,38.1,35.0,29.96,NE,49,4.0,13.0,87,0.00,,,0.00,weatherlink.com 1.10,2013-03-23 18:02:00,
2013-03-23 13:17:00,38.3,35.0,29.96,ENE,68,9.0,13.0,86,0.00,,,0.00,weatherlink.com 1.10,2013-03-23 18:17:00,
2013-03-23 13:32:00,38.4,34.0,29.96,ENE,78,8.0,13.0,85,0.00,,,0.00,weatherlink.com 1.10,2013-03-23 18:32:00,
2013-03-23 13:47:00,38.6,35.0,29.94,East,82,9.0,12.0,85,0.00,,,0.00,weatherlink.com 1.10,2013-03-23 18:47:00,
2013-03-23 14:02:00,38.9,35.0,29.93,ENE,70,8.0,10.0,85,0.00,,,0.00,weatherlink.com 1.10,2013-03-23 19:02:00,
2013-03-23 14:17:00,39.1,35.0,29.93,East,87,8.0,14.0,85,0.00,,,0.00,weatherlink.com 1.10,2013-03-23 19:17:00,
2013-03-23 14:32:00,39.3,35.0,29.92,East,85,8.0,11.0,84,0.00,,,0.00,weatherlink.com 1.10,2013-03-23 19:32:00,
2013-03-23 14:47:00,39.7,35.0,29.91,ENE,78,7.0,10.0,84,0.00,,,0.00,weatherlink.com 1.10,2013-03-23 19:47:00,
2013-03-23 15:02:00,39.8,35.0,29.90,ESE,109,5.0,11.0,84,0.00,,,0.00,weatherlink.com 1.10,2013-03-23 20:02:00,
2013-03-23 15:17:00,40.0,36.0,29.89,East,79,7.0,10.0,84,0.00,,,0.00,weatherlink.com 1.10,2013-03-23 20:17:00,
2013-03-23 15:32:00,39.7,36.0,29.89,East,88,3.0,7.0,87,0.01,,,0.01,weatherlink.com 1.10,2013-03-23 20:32:00,
2013-03-23 15:47:00,39.9,37.0,29.88,East,88,3.0,7.0,88,0.01,,,0.01,weatherlink.com 1.10,2013-03-23 20:47:00,
2013-03-23 16:02:00,40.1,37.0,29.86,East,94,6.0,9.0,89,0.01,,,0.01,weatherlink.com 1.10,2013-03-23 21:02:00,
2013-03-23 16:17:00,40.2,37.0,29.86,East,87,3.0,10.0,89,0.01,,,0.01,weatherlink.com 1.10,2013-03-23 21:17:00,
2013-03-23 16:32:00,40.0,37.0,29.86,East,81,5.0,9.0,90,0.00,,,0.01,weatherlink.com 1.10,2013-03-23 21:32:00,
2013-03-23 16:47:00,40.2,38.0,29.85,ESE,108,4.0,9.0,90,0.00,,,0.01,weatherlink.com 1.10,2013-03-23 21:47:00,
2013-03-23 17:02:00,40.2,38.0,29.85,East,81,5.0,8.0,90,0.00,,,0.01,weatherlink.com 1.10,2013-03-23 22:02:00,
2013-03-23 17:17:00,40.3,38.0,29.85,ENE,75,3.0,8.0,90,0.00,,,0.01,weatherlink.com 1.10,2013-03-23 22:17:00,
2013-03-23 17:32:00,40.5,38.0,29.84,East,92,2.0,8.0,90,0.00,,,0.01,weatherlink.com 1.10,2013-03-23 22:32:00,
2013-03-23 17:47:00,40.7,38.0,29.84,East,88,3.0,7.0,90,0.00,,,0.01,weatherlink.com 1.10,2013-03-23 22:47:00,
2013-03-23 18:02:00,40.8,38.0,29.83,ENE,69,5.0,8.0,89,0.00,,,0.01,weatherlink.com 1.10,2013-03-23 23:02:00,
2013-03-23 18:17:00,41.0,38.0,29.84,NE,51,4.0,6.0,90,0.00,,,0.01,weatherlink.com 1.10,2013-03-23 23:17:00,
2013-03-23 18:32:00,41.0,38.0,29.84,NE,51,3.0,5.0,90,0.00,,,0.01,weatherlink.com 1.10,2013-03-23 23:32:00,
2013-03-23 18:47:00,40.6,38.0,29.85,NNE,19,5.0,5.0,91,0.00,,,0.01,weatherlink.com 1.10,2013-03-23 23:47:00,
2013-03-23 19:02:00,40.0,38.0,29.83,NE,35,5.0,7.0,93,0.00,,,0.01,weatherlink.com 1.10,2013-03-24 00:02:00,
2013-03-23 19:17:00,39.8,38.0,29.83,NNE,23,6.0,8.0,94,0.00,,,0.01,weatherlink.com 1.10,2013-03-24 00:17:00,
2013-03-23 19:32:00,39.8,38.0,29.83,NE,37,4.0,6.0,94,0.00,,,0.01,weatherlink.com 1.10,2013-03-24 00:32:00,
2013-03-23 19:47:00,39.8,39.0,29.82,NE,41,2.0,7.0,95,0.00,,,0.01,weatherlink.com 1.10,2013-03-24 00:47:00,
2013-03-23 20:03:00,39.8,39.0,29.82,ENE,71,9.0,9.0,95,0.00,,,0.01,weatherlink.com 1.10,2013-03-24 01:03:00,
2013-03-23 20:18:00,39.8,39.0,29.81,ENE,77,10.0,14.0,95,0.00,,,0.01,weatherlink.com 1.10,2013-03-24 01:18:00,
2013-03-23 20:33:00,39.8,39.0,29.81,ENE,78,8.0,14.0,95,0.00,,,0.01,weatherlink.com 1.10,2013-03-24 01:33:00,
2013-03-23 20:48:00,39.7,39.0,29.81,East,91,8.0,14.0,96,0.00,,,0.01,weatherlink.com 1.10,2013-03-24 01:48:00,
2013-03-23 21:03:00,39.8,39.0,29.82,East,89,5.0,13.0,96,0.00,,,0.01,weatherlink.com 1.10,2013-03-24 02:03:00,
2013-03-23 21:18:00,39.8,39.0,29.82,East,86,9.0,14.0,96,0.00,,,0.01,weatherlink.com 1.10,2013-03-24 02:18:00,
2013-03-23 21:33:00,39.8,39.0,29.82,East,88,10.0,14.0,96,0.01,,,0.02,weatherlink.com 1.10,2013-03-24 02:33:00,
2013-03-23 21:48:00,39.8,39.0,29.82,East,94,7.0,13.0,96,0.01,,,0.02,weatherlink.com 1.10,2013-03-24 02:48:00,
2013-03-23 22:03:00,39.9,39.0,29.83,East,86,6.0,13.0,96,0.01,,,0.02,weatherlink.com 1.10,2013-03-24 03:03:00,
2013-03-23 22:18:00,40.1,39.0,29.86,East,92,0.0,8.0,96,0.01,,,0.02,weatherlink.com 1.10,2013-03-24 03:18:00,
2013-03-23 22:33:00,39.7,39.0,29.85,NNE,26,4.0,9.0,96,0.04,,,0.06,weatherlink.com 1.10,2013-03-24 03:33:00,
2013-03-23 22:48:00,39.6,39.0,29.82,ENE,59,8.0,12.0,96,0.07,,,0.09,weatherlink.com 1.10,2013-03-24 03:48:00,
2013-03-23 23:03:00,39.7,39.0,29.83,ENE,57,5.0,8.0,97,0.08,,,0.10,weatherlink.com 1.10,2013-03-24 04:03:00,
2013-03-23 23:18:00,39.8,39.0,29.84,NE,51,4.0,8.0,97,0.08,,,0.10,weatherlink.com 1.10,2013-03-24 04:18:00,
2013-03-23 23:33:00,39.8,39.0,29.82,NE,36,6.0,8.0,97,0.04,,,0.10,weatherlink.com 1.10,2013-03-24 04:33:00,
2013-03-23 23:48:00,39.7,39.0,29.80,ENE,71,9.0,11.0,97,0.01,,,0.10,weatherlink.com 1.10,2013-03-24 04:48:00,